CAPE
1006 838 743 1542 186 3 5 105 203 63 2 0 0 0 21 59 0 0 43 63 250 354 931 1158 1011 1142 1132 1002 878 722 565 456 397 557 861 914 725 623 639 876 1113 1125 1256 1035 1273 1022 956 992 886
1002 1102 1744 2017 0 0 16 141 161 76 0 0 0 0 0 12 326 155 41 311 601 647 830 1248 1266 987 967 930 839 794 768 708 719 837 970 1002 1209 1088 1044 1029 903 1152 601 579 1375 1296 942 653 706
1366 1819 1871 547 0 0 55 163 8 0 0 0 0 61 151 111 286 157 233 503 676 932 1001 1245 1141 1034 878 978 988 890 720 782 928 938 853 941 1061 1219 1116 366 1102 1290 1057 868 1239 1273 1248 1034 713
172 1311 25 3 0 6 74 247 0 0 0 0 0 0 238 575 313 537 386 532 543 552 769 1522 1245 1121 941 869 956 919 956 1176 1032 915 946 1263 1294 1328 1263 1070 568 1314 1071 1129 841 1126 981 1237 1054
1071 318 32 23 14 64 33 169 38 0 0 0 0 3 106 588 626 525 396 449 648 951 761 1362 1167 997 1389 1550 1099 1464 1513 1328 1078 1067 1084 1083 1136 1338 1189 1378 1257 1063 563 1202 1249 1234 1059 1271 1026
229 34 43 38 30 118 124 70 0 0 0 13 17 79 298 676 508 579 499 343 1131 837 1013 1037 1550 1692 1788 1539 1672 1698 1243 1153 1346 1149 1315 1411 1291 1131 1135 1190 1013 1265 1055 976 952 991 1056 1149 979
427 68 71 80 81 84 197 5 0 0 0 1 28 15 499 663 505 640 566 687 1139 1111 1151 1309 1617 1804 1873 1984 1302 1443 1332 1132 1332 1451 1691 1443 1249 1216 1119 1238 1122 967 1107 1215 925 868 913 683 795
764 217 114 85 77 44 237 42 23 0 0 17 64 8 243 601 632 670 779 890 1110 1212 1177 1421 1682 1801 1640 1197 1275 1368 1756 1954 1143 1121 1358 1371 1252 735 1224 887 1240 1291 880 936 1020 1048 622 749 748
694 241 136 101 106 114 179 173 14 40 17 0 0 120 353 577 490 524 646 818 967 1097 1244 1376 1486 1508 1059 1376 1184 1387 1466 1664 2002 1809 1576 1072 865 739 904 985 683 746 1041 1218 1189 1071 1127 838 688
170 82 183 161 112 178 214 209 96 138 38 6 56 201 386 379 274 98 134 177 363 488 883 1017 1038 747 1434 1609 1075 1118 1392 1267 1356 1342 1108 726 579 509 604 617 680 732 683 668 839 1100 968 1152 854
49 9 28 160 239 141 231 254 305 213 99 12 105 127 363 308 205 211 52 0 0 218 559 799 598 1076 1438 1406 981 873 1158 1245 1279 899 840 998 741 510 516 483 479 410 540 574 580 544 609 585 342
0 0 6 246 303 144 244 298 388 358 353 30 124 204 308 352 357 527 438 2 0 50 507 900 950 979 995 980 738 490 672 991 829 430 387 548 514 131 70 36 207 244 100 401 282 215 259 289 270
0 0 33 364 360 208 413 500 466 433 134 178 260 327 289 347 456 596 601 11 0 0 92 393 666 332 349 391 500 225 133 381 180 108 116 184 150 11 17 99 86 21 84 148 230 145 79 71 69
0 12 132 315 358 303 353 423 548 306 54 285 284 283 356 388 399 529 586 78 0 0 0 94 66 126 116 75 130 128 82 71 144 177 301 476 513 314 58 51 109 175 106 94 113 169 165 88 99
0 108 56 269 296 326 390 489 473 137 6 155 295 290 336 402 454 469 643 286 25 58 0 1 0 29 1 1 19 151 112 151 48 72 261 612 674 506 176 285 354 290 210 254 211 246 203 149 75
7 21 29 112 234 27 6 44 258 11 15 14 24 253 352 384 422 406 590 437 205 457 40 1 41 0 0 3 104 362 300 97 252 401 475 591 648 596 391 185 348 426 301 144 111 88 66 20 5
0 63 20 13 30 37 65 60 256 33 7 16 0 0 79 204 242 310 480 452 250 424 294 199 181 91 59 65 160 299 269 342 344 409 486 504 601 352 126 59 339 458 232 259 133 154 67 5 0
0 0 0 0 0 4 19 31 50 198 132 125 17 3 0 0 2 54 241 321 201 208 256 399 486 284 197 188 143 242 347 405 728 636 562 400 435 268 51 122 450 435 263 313 284 167 0 1 0
0 0 0 0 0 5 0 20 34 151 196 156 91 55 19 19 0 0 21 138 149 114 136 205 398 412 329 205 233 367 380 426 726 778 664 612 525 345 408 364 532 329 75 155 144 0 0 0 0
0 0 0 0 0 9 0 0 0 0 70 131 200 159 96 44 24 17 27 59 95 104 175 136 192 290 374 271 278 410 386 477 655 725 564 304 28 123 499 398 216 2 0 0 0 0 0 0 0
0 0 0 0 0 0 3 0 0 4 13 107 239 191 140 107 58 15 41 68 34 60 172 169 158 212 292 287 415 540 665 650 688 696 598 246 125 740 887 497 58 0 0 0 0 0 0 0 0
0 0 0 0 0 0 0 0 0 0 0 96 48 272 236 145 41 7 46 62 39 64 124 160 225 237 379 369 538 508 318 281 508 820 643 516 246 1076 763 146 21 0 0 0 0 0 0 0 0
0 0 0 0 0 0 0 0 0 0 0 0 158 157 175 185 104 30 30 67 63 67 109 160 230 279 350 491 505 389 324 364 589 782 729 829 1103 1080 241 0 0 0 0 0 0 0 0 0 0
0 0 0 0 0 0 0 0 0 0 0 0 49 258 254 224 211 33 1 34 50 50 105 149 156 277 346 462 518 406 404 391 534 778 986 1077 814 488 151 23 0 0 0 0 0 0 0 0 0
0 0 0 0 0 0 0 0 0 0 0 0 0 224 342 313 323 118 43 22 63 77 85 98 83 177 326 465 396 413 405 445 675 942 1039 1124 700 346 216 68 9 0 5 0 0 0 0 0 0
0 0 0 0 0 0 0 0 0 0 3 7 30 190 345 399 373 313 90 37 75 87 85 99 61 44 207 231 226 349 422 480 884 1034 937 1091 855 529 162 77 33 0 17 1 0 0 0 0 0
0 0 0 0 0 0 0 0 0 0 15 38 121 171 282 255 108 76 37 39 54 93 97 113 71 59 166 168 228 280 405 482 836 1026 953 924 522 256 124 74 6 43 31 0 0 0 0 0 0
0 0 0 0 0 0 0 0 0 0 0 70 132 199 86 30 23 33 93 57 68 113 177 186 126 117 263 230 295 326 555 730 945 893 817 674 338 148 148 79 53 60 0 0 0 0 0 0 0
0 0 0 0 0 0 0 0 0 0 0 20 136 185 106 45 41 42 13 115 97 230 334 408 374 259 264 490 375 500 676 934 737 811 404 362 309 198 159 75 36 3 0 0 0 0 0 0 0
0 0 0 0 0 0 0 0 0 0 0 0 58 19 9 24 54 80 0 35 242 311 400 488 581 570 520 764 784 719 677 694 948 758 382 158 157 217 193 70 12 0 0 0 0 0 0 0 0
CIN
-311 -333 -326 -162 -73 -7 -22 -38 -57 -65 -43 -0 -0 -0 -96 -152 -0 -0 -217 -159 -98 -55 -0 -0 -1 -0 -0 -0 -0 -0 -5 -9 -14 -4 -0 -0 -5 -7 -5 -0 -0 -0 -0 -0 -0 -0 -0 -0 -2
-346 -288 -149 -99 -0 -0 -22 -85 -58 -78 -0 -0 -0 -0 -0 -53 -159 -192 -215 -97 -56 -48 -5 -0 -1 -1 -0 -0 -2 -0 -0 -0 -7 -0 -0 -1 -0 -1 -1 -0 -0 -0 -13 -5 -0 -0 -0 -9 -3
-333 -212 -117 -65 -0 -0 -60 -95 -59 -0 -0 -0 -0 -157 -148 -171 -169 -196 -176 -92 -59 -25 -8 -1 -2 -1 -13 -2 -1 -1 -4 -0 -0 -0 -1 -0 -0 -0 -0 -25 -0 -0 -3 -0 -0 -0 -0 -0 -5
-464 -266 -254 -29 -0 -128 -69 -67 -0 -0 -0 -0 -0 -0 -163 -112 -155 -128 -154 -111 -89 -81 -38 -0 -0 -2 -7 -11 -6 -5 -1 -0 -0 -0 -0 -0 -0 -0 -0 -1 -23 -0 -3 -0 -0 -0 -4 -0 -0
-385 -235 -149 -143 -119 -97 -105 -77 -94 -0 -0 -0 -0 -61 -213 -87 -114 -159 -174 -138 -95 -54 -45 -0 -6 -13 -0 -0 -7 -0 -0 -0 -0 -0 -1 -1 -0 -0 -0 -0 -0 -0 -7 -0 -0 -0 -4 -0 -1
-126 -79 -110 -136 -121 -92 -97 -110 -0 -0 -0 -221 -219 -195 -150 -90 -135 -148 -162 -156 -38 -87 -41 -25 -0 -0 -0 -0 -0 -0 -0 -0 -0 -3 -0 -1 -0 -0 -0 -0 -1 -0 -0 -0 -0 -0 -0 -0 -0
-89 -118 -95 -95 -85 -91 -97 -45 -0 -0 -0 -48 -195 -106 -134 -100 -127 -125 -146 -92 -31 -39 -38 -13 -1 -0 -0 -0 -0 -0 -0 -7 -0 -0 -0 -0 -0 -0 -1 -0 -0 -0 -0 -0 -7 -12 -5 -10 -1
-126 -137 -108 -108 -82 -56 -121 -165 -200 -0 -0 -148 -177 -92 -193 -158 -131 -106 -90 -66 -27 -21 -29 -12 -1 -1 -1 -11 -4 -0 -0 -0 -2 -2 -0 -0 -0 -10 -2 -4 -0 -0 -2 -0 -0 -0 -15 -11 -8
-188 -118 -111 -112 -103 -58 -140 -125 -235 -224 -214 -0 -7 -212 -210 -202 -198 -154 -113 -72 -43 -26 -22 -15 -7 -4 -36 -12 -13 -3 -0 -0 -0 -0 -0 -5 -11 -12 -4 -1 -8 -4 -0 -0 -0 -0 -0 -6 -12
-154 -177 -101 -113 -109 -63 -128 -121 -178 -183 -232 -266 -273 -249 -229 -248 -253 -288 -268 -241 -170 -129 -81 -61 -52 -82 -27 -4 -30 -18 -8 -10 -2 -1 -3 -22 -26 -31 -20 -17 -12 -13 -7 -2 -0 -0 -1 -0 -5
-187 -50 -234 -86 -96 -112 -123 -150 -181 -169 -196 -242 -209 -272 -224 -241 -272 -231 -330 -0 -0 -245 -145 -103 -116 -66 -39 -24 -47 -63 -40 -33 -15 -29 -31 -18 -30 -39 -34 -35 -35 -35 -23 -28 -21 -15 -16 -15 -21
-0 -0 -240 -69 -93 -118 -103 -147 -155 -158 -141 -269 -272 -253 -223 -188 -180 -162 -187 -26 -0 -342 -181 -122 -102 -97 -89 -74 -95 -119 -97 -65 -64 -81 -83 -62 -60 -90 -103 -79 -60 -56 -74 -45 -43 -48 -40 -37 -37
-0 -0 -164 -45 -81 -115 -147 -123 -121 -155 -277 -335 -344 -272 -229 -186 -145 -130 -149 -421 -0 -0 -274 -207 -170 -218 -200 -174 -144 -187 -222 -127 -189 -194 -183 -116 -100 -24 -54 -91 -98 -132 -105 -87 -59 -64 -81 -86 -76
-0 -157 -76 -61 -67 -117 -117 -146 -131 -210 -346 -350 -353 -313 -259 -215 -160 -147 -138 -265 -0 -0 -0 -316 -333 -287 -300 -266 -248 -221 -255 -220 -195 -140 -97 -78 -74 -72 -102 -107 -105 -87 -105 -113 -86 -66 -61 -68 -65
-0 -88 -127 -65 -94 -101 -101 -91 -100 -255 -214 -343 -354 -327 -313 -260 -214 -161 -142 -179 -284 -254 -0 -29 -5 -316 -22 -20 -88 -209 -217 -193 -168 -147 -103 -73 -76 -74 -85 -70 -64 -60 -75 -69 -62 -59 -61 -50 -53
-190 -197 -134 -100 -71 -127 -53 -49 -175 -335 -387 -359 -419 -380 -327 -293 -258 -211 -150 -142 -222 -203 -329 -70 -301 -0 -0 -47 -243 -163 -148 -163 -136 -138 -111 -94 -71 -74 -70 -92 -63 -61 -58 -58 -53 -50 -39 -50 -16
-0 -82 -118 -62 -105 -105 -112 -101 -224 -389 -269 -383 -0 -0 -377 -319 -304 -252 -181 -172 -178 -190 -200 -212 -232 -252 -258 -232 -254 -169 -156 -127 -128 -127 -115 -111 -87 -81 -100 -135 -65 -62 -62 -46 -42 -36 -37 -16 -0
-0 -0 -0 -0 -0 -143 -172 -179 -276 -301 -315 -262 -332 -272 -0 -0 -94 -344 -255 -201 -209 -205 -210 -192 -181 -178 -205 -224 -256 -201 -148 -121 -104 -88 -99 -118 -91 -93 -161 -117 -66 -60 -48 -36 -31 -26 -0 -19 -0
-0 -0 -0 -0 -0 -172 -0 -164 -175 -237 -316 -324 -302 -303 -318 -286 -0 -0 -364 -301 -283 -319 -244 -189 -165 -161 -169 -186 -158 -149 -114 -106 -83 -85 -105 -108 -99 -100 -77 -79 -53 -58 -70 -54 -48 -0 -0 -0 -0
-0 -0 -0 -0 -0 -141 -0 -0 -0 -0 -254 -270 -292 -337 -279 -282 -322 -378 -358 -367 -338 -293 -265 -223 -186 -178 -150 -153 -157 -151 -146 -119 -100 -104 -121 -148 -233 -183 -74 -63 -63 -17 -0 -0 -0 -0 -0 -0 -0
-0 -0 -0 -0 -0 -0 -129 -14 -0 -232 -312 -393 -404 -336 -325 -260 -246 -360 -350 -376 -413 -342 -256 -240 -220 -215 -194 -194 -173 -150 -126 -121 -114 -113 -107 -131 -196 -79 -58 -63 -120 -18 -0 -0 -0 -0 -0 -0 -0
-0 -0 -0 -0 -0 -0 -0 -0 -0 -0 -19 -279 -407 -357 -336 -278 -295 -348 -338 -354 -371 -336 -286 -256 -241 -245 -203 -211 -160 -135 -115 -82 -92 -70 -100 -108 -164 -60 -58 -120 -163 -7 -0 -0 -0 -0 -0 -0 -0
-0 -0 -0 -0 -0 -0 -0 -0 -0 -0 -0 -0 -273 -323 -348 -302 -282 -313 -337 -310 -314 -336 -280 -267 -255 -242 -229 -195 -174 -150 -114 -105 -99 -84 -81 -91 -74 -58 -122 -0 -0 -0 -0 -0 -0 -0 -0 -0 -0
-0 -0 -0 -0 -0 -0 -0 -0 -0 -0 -0 -0 -285 -322 -364 -371 -290 -333 -158 -366 -369 -390 -374 -330 -270 -224 -242 -195 -180 -150 -117 -110 -97 -80 -72 -73 -78 -126 -172 -165 -0 -0 -0 -0 -0 -0 -0 -0 -0
-0 -0 -0 -0 -0 -0 -0 -0 -0 -0 -0 -0 -6 -280 -360 -372 -286 -316 -356 -367 -406 -390 -346 -347 -326 -255 -265 -219 -198 -168 -142 -119 -86 -65 -58 -57 -70 -126 -152 -209 -130 -0 -112 -0 -0 -0 -0 -0 -0
-0 -0 -0 -0 -0 -0 -0 -0 -0 -0 -306 -328 -286 -385 -366 -277 -272 -257 -352 -325 -343 -361 -398 -367 -367 -311 -313 -286 -249 -212 -162 -135 -88 -69 -81 -59 -60 -86 -149 -175 -190 -0 -170 -14 -0 -0 -0 -0 -0
-0 -0 -0 -0 -0 -0 -0 -0 -0 -0 -236 -249 -256 -368 -262 -187 -300 -298 -438 -397 -389 -392 -381 -364 -367 -363 -349 -299 -280 -251 -189 -150 -102 -82 -93 -70 -101 -133 -143 -161 -92 -153 -131 -0 -0 -0 -0 -0 -0
-0 -0 -0 -0 -0 -0 -0 -0 -0 -0 -0 -183 -184 -241 -235 -320 -345 -329 -349 -437 -403 -367 -371 -411 -409 -330 -324 -347 -284 -248 -169 -130 -135 -127 -103 -122 -110 -152 -116 -141 -135 -137 -0 -0 -0 -0 -0 -0 -0
-0 -0 -0 -0 -0 -0 -0 -0 -0 -0 -0 -130 -129 -198 -222 -241 -244 -311 -309 -403 -430 -401 -417 -388 -376 -364 -377 -390 -299 -276 -198 -153 -211 -119 -210 -189 -152 -124 -114 -90 -98 -161 -0 -0 -0 -0 -0 -0 -0
-0 -0 -0 -0 -0 -0 -0 -0 -0 -0 -0 -0 -193 -336 -330 -367 -328 -345 -0 -378 -390 -394 -428 -411 -396 -344 -369 -320 -203 -164 -162 -219 -116 -185 -264 -169 -105 -129 -90 -90 -103 -0 -0 -0 -0 -0 -0 -0 -0
Wind_Speed
24 23 21 16 17 16 18 12 17 21 15 15 23 17 18 13 14 19 29 31 32 32 31 31 32 30 32 31 28 30 31 29 28 27 26 25 25 24 24 23 22 22 23 22 23 23 24 24 24
23 20 16 15 20 21 15 11 19 13 22 7 5 15 11 14 13 27 31 33 31 32 32 31 31 31 32 30 29 28 28 28 27 26 25 24 23 23 22 21 21 22 22 22 22 23 24 24 24
21 16 15 18 20 20 19 16 21 26 11 9 13 10 13 14 25 32 29 34 29 30 31 31 30 30 30 30 29 28 27 26 25 24 24 23 22 22 21 21 22 22 22 22 22 23 23 23 23
17 17 17 23 26 20 21 22 23 21 11 9 12 7 9 21 29 27 32 31 29 29 31 29 28 29 28 28 27 26 25 24 24 23 23 22 21 22 21 21 21 21 22 21 21 21 22 22 22
16 19 25 25 22 20 20 22 22 21 12 10 10 5 3 18 22 26 30 30 27 28 30 29 29 28 28 27 26 25 24 24 23 22 22 22 21 21 21 20 20 20 20 20 20 20 20 21 20
17 17 27 27 25 20 21 23 24 24 24 24 22 12 12 20 23 25 27 28 26 25 29 29 29 28 27 26 26 25 24 23 22 22 22 21 21 20 20 19 19 19 19 19 19 19 19 19 19
18 20 24 23 22 22 22 22 21 26 25 23 24 21 21 22 22 21 22 22 24 24 26 28 28 27 26 25 24 23 23 22 21 21 20 20 20 19 19 18 18 17 17 17 17 17 17 17 17
14 20 23 22 22 22 22 21 22 24 22 24 22 18 21 24 20 14 12 14 14 22 25 27 28 27 26 24 24 23 22 21 20 20 19 19 19 18 17 17 16 16 16 16 15 15 15 15 13
16 19 20 20 22 19 23 22 21 21 24 19 18 19 23 25 21 18 16 15 11 12 27 26 25 26 25 24 23 23 21 20 20 19 19 18 17 17 17 16 16 16 16 15 15 14 13 12 11
17 18 16 18 18 21 23 22 23 21 23 21 23 24 26 24 25 24 22 20 19 23 25 26 24 24 24 23 23 22 21 20 20 19 19 18 17 17 16 15 15 14 14 13 13 12 11 11 10
16 15 16 15 17 20 22 21 20 22 20 18 22 25 27 27 25 24 24 24 23 23 23 24 24 23 22 20 21 21 21 20 19 18 18 17 17 16 15 14 14 13 12 11 10 9 10 10 10
15 18 17 16 19 21 21 22 18 19 17 21 23 26 27 26 26 25 24 23 22 22 22 22 23 24 23 20 20 20 19 19 19 18 17 16 16 15 14 13 13 12 11 12 8 8 9 10 8
17 12 16 18 20 20 20 18 16 16 19 25 26 26 26 26 24 24 23 21 19 21 23 23 23 24 23 22 21 20 19 19 18 17 16 16 14 13 12 12 11 11 9 9 9 9 8 10 9
10 14 17 14 18 17 16 17 18 17 23 24 25 24 24 24 24 24 24 23 21 18 21 23 24 23 23 23 22 21 20 17 17 17 16 16 14 11 10 12 11 12 8 7 8 9 8 9 9
18 16 15 14 15 14 16 14 12 17 22 22 22 23 23 22 23 24 24 23 23 21 20 21 24 23 24 24 22 20 20 19 18 17 16 16 12 10 10 13 15 13 8 8 8 7 6 6 11
17 14 14 13 13 12 11 7 12 16 18 20 20 20 21 21 22 22 23 22 23 23 23 22 21 24 24 24 22 21 20 19 18 15 14 15 13 9 15 15 9 14 12 14 13 12 11 7 16
17 11 14 14 10 14 11 15 11 14 15 15 17 17 18 20 20 21 23 23 23 23 22 23 22 24 25 23 21 20 19 19 18 14 12 11 9 10 19 11 11 20 18 17 15 15 13 13 20
11 14 15 14 21 10 11 13 11 13 15 16 16 17 17 17 21 21 22 22 21 22 22 22 22 23 23 21 19 19 19 20 18 15 15 13 13 10 10 11 16 19 19 18 12 14 12 17 17
11 12 15 20 22 12 12 13 11 12 13 11 14 14 16 18 20 21 21 20 21 21 23 23 23 24 22 22 20 19 17 18 20 20 17 15 14 11 12 11 12 19 20 18 16 17 19 18 16
13 16 18 24 22 15 16 22 9 8 11 11 12 13 16 19 19 20 21 19 20 23 23 23 23 23 24 23 21 17 17 22 22 18 10 10 11 10 11 10 14 16 17 18 19 17 16 18 17
14 14 15 22 27 17 23 28 20 12 8 7 9 12 16 17 20 21 19 18 17 22 23 23 24 23 25 24 20 21 14 17 14 9 8 8 10 10 11 12 13 15 16 18 19 19 17 17 17
23 14 18 18 22 24 19 2 26 20 9 2 4 12 18 17 17 20 20 17 18 22 23 21 19 21 22 20 18 13 12 9 7 8 9 11 10 11 12 13 15 15 16 17 18 19 18 17 17
15 14 17 17 18 19 18 17 17 25 27 19 5 15 16 18 16 19 22 20 21 20 23 21 19 18 17 17 15 14 12 7 9 10 12 12 12 12 12 13 14 15 16 17 18 19 19 18 18
13 15 17 18 17 17 16 12 8 6 2 13 7 11 16 14 16 14 19 18 19 19 21 20 18 18 15 14 12 12 12 5 8 9 9 11 12 11 11 12 13 14 15 16 17 18 19 18 18
11 15 19 20 18 18 17 15 2 5 8 9 11 12 12 11 17 13 15 17 15 18 21 20 18 18 17 15 14 14 13 6 5 7 8 9 12 10 9 10 11 12 14 15 17 18 19 18 18
13 11 14 23 21 18 16 16 14 2 6 14 7 8 8 11 5 9 10 16 18 16 19 19 18 18 17 16 18 17 15 9 5 7 10 9 8 8 7 9 10 12 13 15 16 18 19 18 19
11 11 14 16 17 18 16 17 24 19 16 16 12 10 9 7 7 6 13 9 19 13 17 19 19 16 14 14 13 13 13 10 6 7 11 17 18 10 7 7 9 10 12 14 16 17 18 18 18
10 6 16 16 14 15 15 15 16 18 14 8 8 9 9 6 8 9 7 6 15 15 15 15 17 17 12 9 11 15 15 12 9 9 8 11 12 14 13 10 8 9 10 12 14 16 17 18 18
9 10 14 12 13 12 14 14 13 13 10 8 12 12 11 7 7 9 8 11 7 9 12 15 15 15 12 6 10 9 11 12 10 10 8 11 6 5 12 15 12 9 8 10 13 15 16 17 17
13 9 9 10 13 13 12 14 21 20 20 7 12 16 15 9 16 9 7 7 3 11 11 14 14 14 5 5 5 3 10 12 12 11 10 14 12 8 9 7 8 9 7 9 12 14 15 15 15
Wind_Direction
117 115 113 123 107 123 114 146 134 113 153 166 131 156 138 175 156 146 141 137 121 128 145 140 126 105 120 115 98 109 127 116 108 116 113 117 112 118 117 123 126 123 119 122 116 114 118 116 126
120 120 129 122 102 103 121 150 124 154 81 325 299 184 206 183 180 129 132 135 122 125 142 143 120 121 126 116 109 113 125 127 124 122 117 119 119 122 131 135 129 123 122 125 125 114 109 110 113
124 131 121 107 97 99 111 124 116 102 170 235 205 240 205 190 113 123 136 127 115 122 136 133 120 123 121 129 124 122 127 126 137 132 127 129 129 130 135 136 126 124 117 122 118 117 113 112 106
131 123 113 95 88 106 102 95 102 108 158 212 14 293 206 142 112 143 119 119 117 119 134 130 123 125 123 128 130 124 133 128 136 141 132 137 142 125 127 133 129 127 115 117 119 118 108 114 106
132 113 81 88 97 101 106 100 101 82 158 197 215 296 307 174 93 105 117 120 114 119 137 139 138 136 136 136 134 133 135 132 135 151 147 143 139 127 128 128 132 128 129 125 120 119 114 108 109
119 119 72 75 88 105 105 104 87 55 69 79 64 32 212 95 99 109 114 121 119 114 136 140 144 145 141 135 136 135 133 134 136 140 142 146 141 135 129 127 133 132 120 117 121 121 112 115 111
109 89 76 86 93 96 106 114 102 73 72 90 95 76 163 105 104 102 106 107 116 115 121 147 152 147 147 139 140 137 131 127 134 131 126 135 141 141 131 138 133 135 140 138 135 130 122 117 115
151 88 78 88 95 91 104 111 104 86 86 93 90 98 112 123 103 89 85 90 94 116 129 143 157 157 149 144 142 141 137 130 128 129 129 129 136 137 128 136 142 146 153 152 151 142 128 125 105
119 78 84 87 92 104 103 103 112 104 84 96 99 87 109 111 103 99 98 97 91 101 148 143 140 146 147 150 146 142 141 138 130 133 135 137 122 132 140 140 137 135 151 155 153 147 139 126 124
91 77 99 105 120 108 104 103 103 101 92 87 64 82 105 111 118 118 119 119 121 136 144 146 141 141 147 140 152 155 157 152 147 144 145 153 137 146 145 150 147 145 145 144 140 143 146 151 133
80 86 113 139 136 113 108 108 118 93 95 99 87 105 118 125 128 126 129 132 131 134 137 143 143 145 139 131 141 152 165 170 161 155 150 156 158 165 177 162 176 171 162 141 132 132 153 150 148
115 66 106 138 126 121 102 103 113 116 98 104 100 113 121 127 133 135 129 128 131 136 139 140 145 152 152 141 143 144 147 154 160 160 161 161 170 174 174 177 180 183 178 188 144 154 169 176 155
66 323 44 111 127 114 101 97 113 134 99 96 100 112 126 134 136 143 139 130 124 134 144 148 148 156 154 155 155 153 156 160 163 158 159 171 167 165 167 185 184 184 172 165 166 178 171 192 191
111 78 54 63 107 129 129 91 86 131 106 105 108 117 127 134 141 145 147 146 141 130 141 151 156 157 157 160 161 165 166 160 163 175 173 176 174 165 165 190 182 202 148 128 159 178 182 179 182
46 53 28 39 67 76 91 93 123 105 112 111 120 125 129 137 139 150 150 153 151 148 140 147 157 156 161 166 166 169 176 181 183 183 179 186 178 164 167 203 217 203 123 79 91 141 95 133 201
0 30 31 66 96 111 79 79 80 109 110 121 123 133 139 139 144 152 155 158 159 158 157 151 153 163 166 169 170 177 182 186 194 180 179 180 178 125 210 228 146 18 55 36 43 48 56 109 238
341 22 15 36 47 17 26 8 75 110 120 122 134 130 140 152 152 155 160 160 162 164 159 163 162 167 170 171 173 179 185 191 191 166 139 138 97 69 332 49 33 340 6 19 31 36 52 226 278
348 351 353 24 340 74 48 21 82 122 140 145 143 146 145 149 166 162 163 166 164 164 165 168 167 171 170 167 166 176 177 194 195 167 173 159 137 118 158 171 243 332 339 9 70 53 74 260 265
337 356 351 332 332 10 172 170 109 137 149 149 157 152 158 168 169 172 170 164 164 163 167 171 172 175 167 170 166 170 172 174 201 214 184 158 163 162 148 121 64 343 325 3 43 32 12 318 280
318 322 324 302 335 346 340 295 91 100 169 170 169 170 171 173 172 172 174 164 166 170 169 169 174 172 173 174 172 161 165 212 249 243 86 76 160 133 128 94 33 19 12 9 358 17 43 329 313
306 315 323 318 300 335 296 272 334 6 167 168 176 178 177 176 178 175 168 166 161 171 170 170 171 168 172 169 157 234 300 289 293 3 47 80 132 95 101 63 49 32 27 7 353 347 353 352 326
287 305 314 328 320 297 333 314 314 343 207 128 167 180 187 182 178 178 175 168 168 173 170 165 163 163 162 156 151 141 139 124 104 14 15 14 34 49 53 42 38 43 26 13 6 359 352 349 340
289 307 314 322 319 319 326 334 339 328 268 242 154 184 185 182 179 177 177 174 172 165 168 166 163 163 155 155 152 151 144 89 8 354 352 0 12 37 36 38 43 36 22 9 11 13 359 347 336
300 307 313 318 324 321 331 338 352 20 132 233 146 166 176 169 176 175 178 174 169 162 162 161 160 165 157 155 154 155 154 86 5 358 2 356 9 19 32 35 35 30 21 10 10 23 0 339 342
303 306 301 303 309 316 334 344 234 10 203 217 173 167 155 151 172 174 179 178 172 168 167 163 161 164 161 159 158 159 160 117 66 29 15 7 4 10 20 21 22 23 22 21 17 20 6 334 333
298 308 307 302 306 316 329 333 347 73 189 8 90 96 104 144 151 178 192 187 177 174 169 166 167 165 162 160 166 165 159 137 75 27 6 2 9 14 16 15 18 19 12 7 15 21 21 3 353
304 312 322 322 321 322 330 330 291 321 354 0 26 58 105 122 133 157 288 235 177 180 176 174 171 168 163 156 150 153 151 138 106 33 352 324 315 338 350 359 11 9 13 15 15 15 11 8 7
298 333 312 313 324 323 329 333 347 337 355 96 130 111 122 93 110 140 131 251 181 183 185 177 177 180 173 158 150 158 155 134 99 75 39 358 335 316 312 315 344 356 9 14 15 11 10 10 2
329 320 322 338 329 337 330 335 5 12 51 120 173 166 165 98 106 129 121 144 179 193 185 182 182 185 189 175 160 130 128 132 88 106 70 354 335 331 310 306 312 336 4 9 8 6 7 5 7
320 331 347 346 336 325 337 340 326 321 326 83 193 217 212 165 206 132 98 110 195 173 183 181 181 185 249 312 313 245 144 128 123 118 68 73 88 90 322 340 325 314 347 7 358 359 1 7 14